Location: Newark
(34.1333°N, 7.9667°W)
Time: 09:19:02
(UTC+00:00)

SR - All Passes

Search period start: 29 November 2021 00:00
Search period end: 09 December 2021 00:00
Orbit: 583 x 871 km, 66.7° (Epoch: 28 November)

Date Brightness Start Highest point End Pass type
(mag) Time Alt. Az. Time Alt. Az. Time Alt. Az.
29 Nov - 00:19:14 10° S 00:23:53 48° ESE 00:28:14 10° NE night (unlit)
29 Nov - 02:03:18 10° W 02:06:03 15° NW 02:08:44 10° NNW night (unlit)
29 Nov - 09:04:36 10° NNE 09:06:53 14° NE 09:09:12 10° E daylight
29 Nov - 10:44:50 10° NW 10:49:05 51° WSW 10:53:36 10° S daylight
29 Nov - 23:30:38 10° SSE 23:34:12 21° ESE 23:37:35 10° ENE night (unlit)
30 Nov - 01:11:44 10° WSW 01:15:59 32° WNW 01:20:01 10° N night (unlit)
30 Nov - 09:54:57 10° NNW 09:59:16 64° ENE 10:03:53 10° SE daylight
01 Dec - 00:21:17 10° SSW 00:26:05 77° WNW 00:30:33 10° NNE night (unlit)
01 Dec - 09:05:36 10° N 09:09:21 27° ENE 09:13:16 10° ESE daylight
01 Dec - 10:47:39 10° WNW 10:51:12 23° WSW 10:54:54 10° SSW daylight
01 Dec - 23:31:44 10° S 23:36:18 44° ESE 23:40:33 10° NE night (unlit)
02 Dec - 01:15:27 10° W 01:18:25 17° NW 01:21:17 10° NNW night (unlit)
02 Dec - 08:17:13 10° NNE 08:19:13 13° NE 08:21:16 10° E daylight
02 Dec - 09:57:11 10° NW 10:01:29 57° WSW 10:06:04 10° SSE daylight
02 Dec - 22:43:18 10° SSE 22:46:36 19° ESE 22:49:47 10° ENE night (unlit)
03 Dec - 00:24:02 10° SW 00:28:22 35° WNW 00:32:27 10° N night (unlit)
03 Dec - 09:07:20 10° NNW 09:11:40 58° ENE 09:16:15 10° SE daylight
03 Dec - 10:52:13 10° W 10:53:13 11° WSW 10:54:13 10° WSW daylight
03 Dec - 23:33:42 10° SSW 23:38:29 84° WNW 23:42:55 10° NNE night (unlit)
04 Dec - 08:18:03 10° N 08:21:43 25° ENE 08:25:31 10° ESE daylight
04 Dec - 09:59:54 10° NW 10:03:36 26° WSW 10:07:29 10° SSW daylight
04 Dec - 22:44:15 10° S 22:48:42 40° ESE 22:52:52 10° NE night (unlit)
05 Dec - 00:27:38 10° W 00:30:46 18° NW 00:33:48 10° N night (unlit)
05 Dec - 07:29:54 10° NNE 07:31:34 12° NE 07:33:16 10° ENE daylight
05 Dec - 09:09:30 10° NNW 09:13:52 63° WSW 09:18:32 10° SSE daylight
05 Dec - 21:55:59 10° SSE 21:59:01 17° ESE 22:01:57 10° ENE night (unlit)
05 Dec - 23:36:21 10° SW 23:40:44 38° WNW 23:44:52 10° N night (unlit)
06 Dec - 08:19:44 10° NNW 08:24:03 53° ENE 08:28:37 10° SE daylight
06 Dec - 10:03:54 10° W 10:05:38 12° WSW 10:07:23 10° SW daylight
06 Dec - 22:46:07 10° SSW 22:50:51 88° ESE 22:55:17 10° NNE night (unlit)
07 Dec - 07:30:31 10° N 07:34:04 23° ENE 07:37:47 10° ESE daylight
07 Dec - 09:12:10 10° NW 09:16:00 29° WSW 09:20:04 10° S daylight
07 Dec - 21:56:46 10° S 22:01:05 36° ESE 22:05:10 10° NE night (unlit)
07 Dec - 23:39:49 10° WSW 23:43:07 19° NW 23:46:19 10° N night (unlit)
08 Dec - 06:42:42 10° NE 06:43:54 11° NE 06:45:07 10° ENE visible
08 Dec - 08:21:51 10° NNW 08:26:16 70° WSW 08:30:59 10° SSE daylight
08 Dec - 21:08:43 10° SE 21:11:26 15° ESE 21:14:04 10° ENE night (unlit)
08 Dec - 22:48:41 10° SW 22:53:06 42° WNW 22:57:17 10° NNE night (unlit)
